EW9273 Weather Reports


Display with metric or nautical units.
time (UTC)temp
F
wind
direction
speed
MPH
gust
MPH
rain 1hr
in
rain 24hr
in
rain mn
in
humidity
%
barometer
mb
20260905040032 84 89 0.0 4.0 0.00 0.00 0.00 62 1010.8
20260905035532 85 79 1.0 4.0 0.00 0.00 0.00 62 1010.8
20260905035032 85 69 1.0 4.0 0.00 0.00 0.00 62 1010.8
20260905034532 85 84 1.0 4.0 0.00 0.00 0.00 62 1010.8
20260905034031 85 98 1.0 3.0 0.00 0.00 0.00 61 1010.7
20260905033530 85 78 1.0 4.0 0.00 0.00 0.00 61 1010.7
20260905033042 85 85 2.0 4.0 0.00 0.00 0.00 61 1010.7
20260905032530 85 103 1.0 6.0 0.00 0.00 0.00 61 1010.4
20260905032030 85 49 2.0 7.0 0.00 0.00 0.00 61 1010.4
20260905031530 85 285 2.0 7.0 0.00 0.00 0.00 61 1010.4
20260905031032 85 86 2.0 6.0 0.00 0.00 0.00 61 1010.4
20260905030529 85 57 1.0 7.0 0.00 0.00 0.00 61 1010.4
20260905030029 85 147 1.0 7.0 0.00 0.00 0.00 61 1010.4
20260905025533 85 105 2.0 9.0 0.00 0.00 0.00 62 1010.3
20260905025029 85 77 2.0 9.0 0.00 0.00 0.00 62 1010.2
20260905024529 85 85 2.0 6.0 0.00 0.00 0.00 62 1010.0
20260905024031 85 67 2.0 8.0 0.00 0.00 0.00 62 1010.0
20260905023528 85 53 1.0 8.0 0.00 0.00 0.00 62 1010.1
20260905023028 86 98 2.0 6.0 0.00 0.00 0.00 62 1010.0
20260905022527 86 98 2.0 4.0 0.00 0.00 0.00 62 1009.8
20260905022027 86 91 2.0 6.0 0.00 0.00 0.00 61 1009.8
20260905021534 86 63 2.0 6.0 0.00 0.00 0.00 61 1009.7
20260905021028 86 80 1.0 6.0 0.00 0.00 0.00 61 1009.6
20260905020526 86 56 2.0 9.0 0.00 0.00 0.00 61 1009.6
20260905020030 86 69 2.0 9.0 0.00 0.00 0.00 60 1009.5
20260905015527 86 64 4.0 8.0 0.00 0.00 0.00 60 1009.5
20260905015030 87 64 2.0 8.0 0.00 0.00 0.00 60 1009.5
20260905014526 87 82 3.0 8.0 0.00 0.00 0.00 60 1009.4
20260905014026 87 98 3.0 8.0 0.00 0.00 0.00 59 1009.4
20260905013527 87 79 3.0 7.0 0.00 0.00 0.00 59 1009.3
20260905013026 87 51 2.0 7.0 0.00 0.00 0.00 58 1009.3
20260905012525 88 94 2.0 9.0 0.00 0.00 0.00 58 1009.3
20260905012026 88 69 3.0 11.0 0.00 0.00 0.00 57 1009.2
20260905011524 88 96 4.0 11.0 0.00 0.00 0.00 56 1009.2
20260905011025 88 57 4.0 10.0 0.00 0.00 0.00 56 1009.1
20260905010526 89 80 2.0 8.0 0.00 0.00 0.00 55 1009.1
20260905010024 89 90 2.0 5.0 0.00 0.00 0.00 55 1009.1
20260905005525 89 64 1.0 4.0 0.00 0.00 0.00 55 1009.0
20260905005024 89 70 1.0 5.0 0.00 0.00 0.00 54 1008.9
20260905004529 89 63 2.0 5.0 0.00 0.00 0.00 54 1008.9
20260905004023 89 101 1.0 8.0 0.00 0.00 0.00 54 1008.8
20260905003526 90 61 0.0 8.0 0.00 0.00 0.00 54 1008.7
20260905003023 90 53 3.0 12.0 0.00 0.00 0.00 54 1008.7
20260905002524 90 89 5.0 12.0 0.00 0.00 0.00 54 1008.6
20260905002022 90 78 2.0 8.0 0.00 0.00 0.00 54 1008.6
20260905001522 90 107 3.0 7.0 0.00 0.00 0.00 54 1008.5
20260905001021 90 74 2.0 12.0 0.00 0.00 0.00 53 1008.5
20260905000522 91 51 4.0 12.0 0.00 0.00 0.00 53 1008.5
20260905000021 91 59 6.0 12.0 0.00 0.00 0.00 53 1008.3
20260904235523 91 93 2.0 13.0 0.00 0.00 0.00 53 1008.3
20260904235022 91 26 5.0 13.0 0.00 0.00 0.00 53 1008.3
20260904234522 91 60 4.0 10.0 0.00 0.00 0.00 53 1008.2
20260904234021 92 5 4.0 10.0 0.00 0.00 0.00 52 1008.2
20260904233520 92 98 4.0 9.0 0.00 0.00 0.00 53 1008.1
20260904233020 92 69 2.0 9.0 0.00 0.00 0.00 53 1008.1
20260904232519 92 58 1.0 7.0 0.00 0.00 0.00 53 1008.2
20260904232017 92 48 3.0 6.0 0.00 0.00 0.00 53 1008.3
20260904231516 91 11 1.0 4.0 0.00 0.00 0.00 54 1008.4
20260904231015 91 148 1.0 8.0 0.00 0.00 0.00 54 1008.4
20260904230514 91 92 3.0 9.0 0.00 0.00 0.00 54 1008.4
20260904230014 91 80 4.0 9.0 0.00 0.00 0.00 53 1008.4
20260904225515 91 53 2.0 6.0 0.00 0.00 0.00 53 1008.5
20260904225013 91 5 2.0 6.0 0.00 0.00 0.00 52 1008.5
20260904224513 91 101 2.0 9.0 0.00 0.00 0.00 52 1008.5
20260904224012 92 52 5.0 9.0 0.00 0.00 0.00 52 1008.5
20260904223512 92 132 1.0 5.0 0.00 0.00 0.00 52 1008.5
20260904223011 92 63 1.0 7.0 0.00 0.00 0.00 51 1008.6
20260904222513 92 143 1.0 7.0 0.00 0.00 0.00 51 1008.6
20260904222010 92 119 1.0 6.0 0.00 0.00 0.00 52 1008.5
20260904221510 92 180 1.0 6.0 0.00 0.00 0.00 51 1008.6
20260904221009 92 153 1.0 6.0 0.00 0.00 0.00 52 1008.7
20260904220513 92 144 1.0 7.0 0.00 0.00 0.00 52 1008.8
20260904220007 92 30 1.0 7.0 0.00 0.00 0.00 53 1008.9
20260904215505 90 63 4.0 8.0 0.00 0.00 0.00 55 1008.9
20260904215007 91 82 2.0 8.0 0.00 0.00 0.00 55 1009.0
20260904214505 91 15 2.0 7.0 0.00 0.00 0.00 55 1009.1
20260904214004 91 103 2.0 6.0 0.00 0.00 0.00 55 1009.2
20260904213504 91 73 3.0 9.0 0.00 0.00 0.00 56 1009.2
20260904213004 91 61 3.0 9.0 0.00 0.00 0.00 55 1009.3
20260904212505 91 42 1.0 7.0 0.00 0.00 0.00 56 1009.3
20260904212003 90 188 0.0 5.0 0.00 0.00 0.00 57 1009.4
20260904211603 90 5 1.0 5.0 0.00 0.00 0.00 57 1009.5
20260904211059 90 70 1.0 4.0 0.00 0.00 0.00 57 1009.6
20260904210559 90 199 1.0 4.0 0.00 0.00 0.00 57 1009.6
20260904210105 89 206 1.0 4.0 0.00 0.00 0.00 58 1009.7
20260904205558 89 136 1.0 6.0 0.00 0.00 0.00 58 1009.8
20260904205101 89 157 2.0 6.0 0.00 0.00 0.00 59 1009.9
20260904204557 89 86 3.0 6.0 0.00 0.00 0.00 59 1009.9
20260904204056 89 37 1.0 4.0 0.00 0.00 0.00 59 1009.9
20260904203557 89 203 0.0 6.0 0.00 0.00 0.00 61 1010.0
20260904203055 88 84 2.0 6.0 0.00 0.00 0.00 62 1010.0
20260904202556 88 74 1.0 4.0 0.00 0.00 0.00 62 1010.0
20260904202053 88 201 0.0 3.0 0.00 0.00 0.00 63 1010.1
20260904201619 88 76 0.0 4.0 0.00 0.00 0.00 64 1010.1
20260904201053 88 5 0.0 5.0 0.00 0.00 0.00 64 1010.1
20260904200553 88 163 1.0 5.0 0.00 0.00 0.00 64 1010.1
20260904200058 88 31 2.0 4.0 0.00 0.00 0.00 64 1010.1
20260904195553 87 56 1.0 5.0 0.00 0.00 0.00 64 1010.1
20260904195053 87 81 2.0 6.0 0.00 0.00 0.00 65 1010.2
20260904194604 87 40 2.0 6.0 0.00 0.00 0.00 65 1010.2
20260904194052 87 42 1.0 4.0 0.00 0.00 0.00 65 1010.2
20260904193552 87 60 0.0 4.0 0.00 0.00 0.00 65 1010.3
20260904193052 87 78 1.0 5.0 0.00 0.00 0.00 66 1010.3
20260904192551 87 111 2.0 5.0 0.00 0.00 0.00 65 1010.4
20260904192050 87 150 1.0 8.0 0.00 0.00 0.00 66 1010.4
20260904191555 86 355 1.0 9.0 0.00 0.00 0.00 67 1010.5
20260904191051 87 65 5.0 9.0 0.00 0.00 0.00 67 1010.6
20260904190551 87 63 3.0 9.0 0.00 0.00 0.00 66 1010.7
20260904190051 88 42 3.0 8.0 0.00 0.00 0.00 64 1010.7
20260904185552 88 82 2.0 6.0 0.00 0.00 0.00 64 1010.7
20260904185049 88 85 1.0 5.0 0.00 0.00 0.00 64 1010.7
20260904184555 88 65 0.0 3.0 0.00 0.00 0.00 64 1010.7
20260904184050 88 84 1.0 7.0 0.00 0.00 0.00 64 1010.7
20260904183552 88 157 3.0 7.0 0.00 0.00 0.00 65 1010.8
20260904183050 88 88 2.0 5.0 0.00 0.00 0.00 65 1010.9
20260904182549 88 71 2.0 8.0 0.00 0.00 0.00 65 1010.9
20260904182049 88 105 3.0 8.0 0.00 0.00 0.00 64 1010.9
20260904181549 88 62 1.0 6.0 0.00 0.00 0.00 65 1011.0
20260904181050 88 66 1.0 5.0 0.00 0.00 0.00 65 1011.1
20260904180548 88 92 2.0 5.0 0.00 0.00 0.00 65 1011.1
20260904180049 88 75 3.0 8.0 0.00 0.00 0.00 64 1011.2
20260904175548 88 90 2.0 8.0 0.00 0.00 0.00 65 1011.2
20260904175048 88 82 1.0 5.0 0.00 0.00 0.00 64 1011.1
20260904174549 88 156 1.0 5.0 0.00 0.00 0.00 64 1011.1
20260904174047 88 157 3.0 9.0 0.00 0.00 0.00 65 1011.2
20260904173547 88 74 4.0 9.0 0.00 0.00 0.00 65 1011.3
20260904173103 88 153 1.0 7.0 0.00 0.00 0.00 65 1011.4
20260904172546 88 166 3.0 8.0 0.00 0.00 0.00 64 1011.4
20260904172046 88 151 3.0 8.0 0.00 0.00 0.00 64 1011.5
20260904171602 88 152 3.0 6.0 0.00 0.00 0.00 65 1011.5
20260904171048 87 123 2.0 6.0 0.00 0.00 0.00 66 1011.6
20260904170543 87 101 2.0 6.0 0.00 0.00 0.00 67 1011.7
20260904170042 86 155 1.0 4.0 0.00 0.00 0.00 67 1011.8
20260904165541 86 248 1.0 4.0 0.00 0.00 0.00 67 1011.8
20260904165040 86 215 0.0 5.0 0.00 0.00 0.00 67 1011.9
20260904164541 86 171 1.0 3.0 0.00 0.00 0.00 68 1011.9
20260904164039 86 162 0.0 6.0 0.00 0.00 0.00 68 1011.9
20260904163539 86 164 2.0 6.0 0.00 0.00 0.00 68 1011.8
20260904163038 86 115 1.0 6.0 0.00 0.00 0.00 69 1011.9
20260904162536 85 169 1.0 6.0 0.00 0.00 0.00 69 1011.9
20260904162034 85 109 1.0 6.0 0.00 0.00 0.00 70 1011.9
20260904161538 85 224 2.0 7.0 0.00 0.00 0.00 70 1011.8
20260904161035 85 221 1.0 5.0 0.00 0.00 0.00 71 1011.8
20260904160534 85 146 0.0 5.0 0.00 0.00 0.00 71 1011.9
20260904160034 85 163 2.0 4.0 0.00 0.00 0.00 71 1011.8
20260904155531 85 192 1.0 6.0 0.00 0.00 0.00 72 1011.8
20260904155030 84 51 2.0 6.0 0.00 0.00 0.00 72 1011.7
20260904154530 84 208 1.0 6.0 0.00 0.00 0.00 72 1011.7
20260904154031 84 155 1.0 4.0 0.00 0.00 0.00 73 1011.5
20260904153528 84 148 1.0 7.0 0.00 0.00 0.00 73 1011.6
20260904153029 84 105 0.0 7.0 0.00 0.00 0.00 74 1011.5
20260904152525 84 94 3.0 7.0 0.00 0.00 0.00 75 1011.5
20260904152024 83 175 1.0 4.0 0.00 0.00 0.00 75 1011.5
20260904151523 83 128 1.0 4.0 0.00 0.00 0.00 76 1011.4
20260904151025 83 83 0.0 2.0 0.00 0.00 0.00 77 1011.4
20260904150521 82 61 0.0 5.0 0.00 0.00 0.00 77 1011.3
20260904150028 82 151 0.0 4.0 0.00 0.00 0.00 77 1011.3
20260904145519 82 168 1.0 4.0 0.00 0.00 0.00 78 1011.4
20260904145022 82 18 0.0 4.0 0.00 0.00 0.00 78 1011.4
20260904144518 81 156 0.0 4.0 0.00 0.00 0.00 79 1011.4
20260904144016 81 200 1.0 6.0 0.00 0.00 0.00 79 1011.4
20260904143515 81 113 1.0 6.0 0.00 0.00 0.00 79 1011.3
20260904143014 81 91 1.0 7.0 0.00 0.00 0.00 79 1011.3
20260904142512 81 191 3.0 7.0 0.00 0.00 0.00 80 1011.3
20260904142011 81 114 2.0 5.0 0.00 0.00 0.00 80 1011.4
20260904141512 81 191 0.0 3.0 0.00 0.00 0.00 80 1011.4
20260904141010 80 81 0.0 4.0 0.00 0.00 0.00 80 1011.4
20260904140510 80 123 0.0 4.0 0.00 0.00 0.00 81 1011.4
20260904140013 80 136 2.0 8.0 0.00 0.00 0.00 81 1011.4
20260904135511 80 180 1.0 7.0 0.00 0.00 0.00 81 1011.3
20260904135009 80 120 1.0 7.0 0.00 0.00 0.00 81 1011.2
20260904134522 80 142 2.0 7.0 0.00 0.00 0.00 81 1011.2
20260904134006 80 71 0.0 4.0 0.00 0.00 0.00 82 1011.3
20260904133505 79 86 0.0 4.0 0.00 0.00 0.00 82 1011.2
20260904133005 79 90 0.0 5.0 0.00 0.00 0.00 82 1011.2
20260904132505 79 54 1.0 5.0 0.00 0.00 0.00 82 1011.2
20260904132004 79 67 0.0 4.0 0.00 0.00 0.00 82 1011.2
20260904131505 79 91 1.0 5.0 0.00 0.00 0.00 82 1011.2
20260904131003 79 145 1.0 5.0 0.00 0.00 0.00 82 1011.1
20260904130503 79 75 1.0 5.0 0.00 0.00 0.00 82 1011.0
20260904130003 79 99 1.0 5.0 0.00 0.00 0.00 82 1010.9
20260904125604 79 128 1.0 5.0 0.00 0.00 0.00 82 1010.9
20260904125100 79 76 0.0 2.0 0.00 0.00 0.00 82 1010.8
20260904124559 79 131 0.0 4.0 0.00 0.00 0.00 82 1010.7
20260904124058 79 82 1.0 2.0 0.00 0.00 0.00 82 1010.7
20260904123556 79 98 0.0 3.0 0.00 0.00 0.00 82 1010.7
20260904123056 79 119 0.0 4.0 0.00 0.00 0.00 81 1010.6
20260904122555 79 61 1.0 4.0 0.00 0.00 0.00 81 1010.6
20260904122055 79 86 1.0 4.0 0.00 0.00 0.00 81 1010.7
20260904121554 79 69 1.0 5.0 0.00 0.00 0.00 81 1010.7
20260904121052 79 107 2.0 5.0 0.00 0.00 0.00 81 1010.6
20260904120552 79 36 0.0 3.0 0.00 0.00 0.00 81 1010.5
20260904120104 79 125 0.0 6.0 0.00 0.00 0.00 81 1010.3
20260904115551 79 111 1.0 6.0 0.00 0.00 0.00 81 1010.2
20260904115055 79 111 0.0 2.0 0.00 0.00 0.00 81 1010.2
20260904114551 79 84 0.0 2.0 0.00 0.00 0.00 81 1010.2
20260904114054 79 223 0.0 3.0 0.00 0.00 0.00 81 1010.2
20260904113553 79 107 0.0 3.0 0.00 0.00 0.00 81 1010.2
20260904113051 79 44 1.0 4.0 0.00 0.00 0.00 81 1010.0
20260904112551 79 114 1.0 5.0 0.00 0.00 0.00 80 1010.0
20260904112052 79 82 2.0 5.0 0.00 0.00 0.00 80 1009.9
20260904111549 79 69 1.0 3.0 0.00 0.00 0.00 80 1009.9
20260904111050 79 82 0.0 3.0 0.00 0.00 0.00 80 1009.9
20260904110549 79 57 0.0 3.0 0.00 0.00 0.00 80 1009.9
20260904110049 79 163 0.0 3.0 0.00 0.00 0.00 80 1009.9
20260904105551 79 78 0.0 3.0 0.00 0.00 0.00 80 1009.9
20260904105048 79 94 0.0 3.0 0.00 0.00 0.00 80 1009.9
20260904104550 79 101 0.0 4.0 0.00 0.00 0.00 80 1009.8
20260904104049 79 99 0.0 6.0 0.00 0.00 0.00 80 1009.8
20260904103548 80 123 1.0 8.0 0.00 0.00 0.00 80 1009.7
20260904103048 79 178 3.0 8.0 0.00 0.00 0.00 80 1009.7
20260904102548 80 195 0.0 6.0 0.00 0.00 0.00 80 1009.7
20260904102048 80 150 1.0 5.0 0.00 0.00 0.00 80 1009.6
20260904101547 80 152 2.0 7.0 0.00 0.00 0.00 80 1009.7
20260904101048 80 131 2.0 6.0 0.00 0.00 0.00 80 1009.8
20260904100547 80 171 2.0 7.0 0.00 0.00 0.00 80 1009.8
20260904100050 79 92 0.0 5.0 0.00 0.00 0.00 80 1009.7
20260904095547 79 151 1.0 5.0 0.00 0.00 0.00 80 1009.7
20260904095046 79 153 1.0 6.0 0.00 0.00 0.00 80 1009.7
20260904094551 79 159 1.0 6.0 0.00 0.00 0.00 80 1009.6
20260904094046 79 142 1.0 6.0 0.00 0.00 0.00 80 1009.6
20260904093546 79 121 2.0 5.0 0.00 0.00 0.00 80 1009.6
20260904093051 79 159 0.0 5.0 0.00 0.00 0.00 80 1009.6
20260904092547 79 158 1.0 8.0 0.00 0.00 0.00 80 1009.5
20260904092045 79 179 2.0 8.0 0.00 0.00 0.00 80 1009.6
20260904091545 79 126 0.0 3.0 0.00 0.00 0.00 80 1009.5
20260904091044 79 227 1.0 5.0 0.00 0.00 0.00 80 1009.5
20260904090544 79 194 0.0 5.0 0.00 0.00 0.00 80 1009.5
20260904090044 79 154 2.0 5.0 0.00 0.00 0.00 79 1009.5
20260904085547 79 167 2.0 5.0 0.00 0.00 0.00 79 1009.6
20260904085044 79 146 1.0 5.0 0.00 0.00 0.00 79 1009.7
20260904084545 79 177 1.0 5.0 0.00 0.00 0.00 79 1009.7
20260904084043 79 161 0.0 3.0 0.00 0.00 0.00 79 1009.7
20260904083543 79 178 0.0 4.0 0.00 0.00 0.00 79 1009.6
20260904083046 79 146 0.0 4.0 0.00 0.00 0.00 79 1009.5
20260904082543 79 134 1.0 4.0 0.00 0.00 0.00 79 1009.4
20260904082042 80 142 0.0 3.0 0.00 0.00 0.00 79 1009.6
20260904081541 80 153 0.0 3.0 0.00 0.00 0.00 78 1009.7
20260904081040 80 153 1.0 5.0 0.00 0.00 0.00 78 1009.7
20260904080540 80 160 0.0 6.0 0.00 0.00 0.00 78 1009.7
20260904080041 80 172 2.0 6.0 0.00 0.00 0.00 78 1009.6
20260904075539 80 150 1.0 5.0 0.00 0.00 0.00 78 1009.7
20260904075039 80 155 1.0 4.0 0.00 0.00 0.00 78 1009.8
20260904074538 80 163 0.0 5.0 0.00 0.00 0.00 78 1009.8
20260904074037 80 163 1.0 5.0 0.00 0.00 0.00 78 1009.9
20260904073537 80 163 2.0 5.0 0.00 0.00 0.00 77 1010.0
20260904073037 80 202 1.0 4.0 0.00 0.00 0.00 77 1009.9
20260904072536 80 161 1.0 6.0 0.00 0.00 0.00 77 1010.0
20260904072036 81 155 1.0 6.0 0.00 0.00 0.00 77 1010.0
20260904071534 81 147 1.0 6.0 0.00 0.00 0.00 77 1010.1
20260904071036 81 148 2.0 7.0 0.00 0.00 0.00 77 1010.2
20260904070534 81 134 2.0 7.0 0.00 0.00 0.00 76 1010.2
20260904070034 81 161 2.0 7.0 0.00 0.00 0.00 76 1010.2
20260904065532 81 148 1.0 5.0 0.00 0.00 0.00 76 1010.2
20260904065032 81 153 1.0 6.0 0.00 0.00 0.00 76 1010.1
20260904064532 81 149 2.0 6.0 0.00 0.00 0.00 76 1010.1
20260904064032 81 64 3.0 7.0 0.00 0.00 0.00 76 1010.2
20260904063532 81 145 2.0 7.0 0.00 0.00 0.00 76 1010.2
20260904063035 81 92 3.0 12.0 0.00 0.00 0.00 75 1010.3
20260904062529 81 132 5.0 12.0 0.00 0.00 0.00 75 1010.2
20260904062029 82 213 2.0 11.0 0.00 0.00 0.00 75 1010.2
20260904061529 82 135 2.0 10.0 0.00 0.00 0.00 75 1010.2
20260904061032 82 149 3.0 10.0 0.00 0.00 0.00 75 1010.3
20260904060529 82 123 4.0 8.0 0.00 0.00 0.00 75 1010.3
20260904060029 82 175 4.0 9.0 0.00 0.00 0.00 75 1010.4
20260904055528 82 128 3.0 9.0 0.00 0.00 0.00 75 1010.3
20260904055028 82 121 4.0 9.0 0.00 0.00 0.00 75 1010.3
20260904054527 82 187 2.0 10.0 0.00 0.00 0.00 75 1010.3
20260904054026 82 54 3.0 8.0 0.00 0.00 0.00 74 1010.3
20260904053526 82 161 3.0 9.0 0.00 0.00 0.00 74 1010.3
20260904053027 82 208 4.0 9.0 0.00 0.00 0.00 74 1010.3
20260904052527 82 142 2.0 9.0 0.00 0.00 0.00 74 1010.2
20260904052025 82 144 2.0 6.0 0.00 0.00 0.00 74 1010.2
20260904051523 82 58 2.0 10.0 0.00 0.00 0.00 74 1010.3
20260904051023 82 146 3.0 10.0 0.00 0.00 0.00 73 1010.2
20260904050523 82 152 2.0 7.0 0.00 0.00 0.00 73 1010.2
20260904050022 82 171 4.0 9.0 0.00 0.00 0.00 73 1010.2
20260904045522 82 136 3.0 9.0 0.00 0.00 0.00 73 1010.1
20260904045023 82 50 1.0 8.0 0.00 0.00 0.00 73 1010.1
20260904044521 82 116 2.0 8.0 0.00 0.00 0.00 73 1010.0
20260904044023 82 184 2.0 7.0 0.00 0.00 0.00 72 1009.9
20260904043520 83 132 2.0 5.0 0.00 0.00 0.00 72 1009.9
20260904043021 83 173 1.0 9.0 0.00 0.00 0.00 72 1010.0
20260904042520 83 179 2.0 9.0 0.00 0.00 0.00 72 1009.9
20260904042022 83 153 2.0 8.0 0.00 0.00 0.00 71 1009.9
20260904041519 83 182 3.0 10.0 0.00 0.00 0.00 71 1009.8
20260904041021 83 30 2.0 11.0 0.00 0.00 0.00 70 1009.9
20260904040519 84 129 1.0 12.0 0.00 0.00 0.00 69 1009.9